DELTA 1 DEB, 27577

Orbit data source: Space-Track

DELTA 1 DEB, 27577 is space debris in SSO originally from a launch on Thu, 12 Jun 1975 UTC launched from the Air Force Western Test Range (AFWTR). Debris objects in space refer to the collection of defunct objects orbiting the Earth. Examples of debris include non-operational satellites, rocket bodies, and fragments generated from explosions, collisions, or faulty payload assembly.

Loading next visibility...
Identifier
27577, 1975-052LE
Orbit
SSO
Country
Flag of USUS
Related business
Manufacturer
Unknown
Mission
Spacecraft
Bus & Motor
Unknown
Mass
Unknown
Launch date (UTC)
1975-06-12 (51 years ago)
Launch vehicle
Unknown
Launch site
Air Force Western Test Range (AFWTR)
Object type
Payload
Rocket body
Debris
Shape & HBR
Unknown shape, 0.1 m
Radar Cross Section
Medium (>0.1 m² and <1 m²)

Expand to show TLE details & history
Last TLE update: 3 days ago

TLE from 3 days ago
0 DELTA 1 DEB
1 27577U 75052LE  26170.10906064  .00000439  00000-0  76548-3 0  9998
2 27577  99.0917  36.0575 0078654  26.6257 125.1876 13.47590688537814
Epoch: 2026-06-19T02:37Z
TLE epoch observation values (Epoch: 2026-06-19T02:37:02.839Z)
Latitude
27.11863°
Longitude
-85.8702°
Altitude
1,118.476 km
Speed
7.279 km/s
True Right ascension
14h 42m 56s
True Declination
26° 59' 10"
Sunlit
Object was in daylight at epoch
Visualization orbit readout
Latitude
Unknown
Longitude
Unknown
Altitude
Unknown
Speed
Unknown
Apparent Right ascension
Unknown
Apparent Declination
Unknown
Sunlit
N/A
Visualization observer readout
Local Sidereal Time
15:46:08
Azimuth
Unknown
Elevation
Unknown
Doppler factor
Unknown
Orbital elements
Apogee altitude
1,137.059 km
Perigee altitude
1,019.761 km
Semi-major axis
7,456.547 km
Eccentricity
0.00787
Inclination
99.0917°
RAAN
36.0575°
Arg. of periapsis
26.6257°
True anomaly
125.92004°
Mean anomaly
125.1876°
Eccentric anomaly
125.55424°
Mean motion
3.37083 °/min
Orbital period
106.8 mins
BSTAR
0.00076548
Loading maneuver chart data...
Computing Atmospheric mass density...

Documentation

Showing up to 5 results
|